Flag Weather past 2 weeks in Huntington Beach, California, U.S.A.

Now
66 °F

Clear.


Feels Like: 66 °F
Forecast: 55 / 70 °F
Wind: No wind

Location: John Wayne Airport-Orange County Airport

Current Time: Nov 21, 2014 at 7:22:33 PM

Latest Report: Nov 21, 2014 at 6:53 PM


Visibility: 10 mi

Pressure: 30.00 "Hg

Humidity: 59%

Dew point: 51 °F

Location of Huntington BeachLocation

Historic Weather in Huntington Beach — Graph

°F

Huntington Beach temperature yesterday

Maximum temperature yesterday: 72 °F (at 11:53 AM)
Minimum temperature yesterday: 54 °F (at 4:53 AM)
Average temperature yesterday: 64 °F

Past Weeks' High & Low Weather Summary

 TemperatureHumidityPressure
High89 °F (Nov 7, 11:53 AM)88% (Nov 9, 1:01 AM)30.16 "Hg (Nov 9, 1:01 AM)
Low53 °F (Nov 18, 4:53 AM)4% (Nov 16, 9:53 AM)29.81 "Hg (Nov 9, 3:53 PM)
Average67 °F53%30.01 "Hg
* Reported Nov 6 5:53 PM — Nov 21 5:53 PM, Huntington Beach, Weather by CustomWeather, © 2014

Note: Actual official high and low records may vary slightly from our data, if they occured in-between our weather recording intervals... More about our weather records

Advertising

Huntington Beach weather history for previous 24 hours

 ConditionsComfort  
Time TempWeatherWind HumidityBarometerVisibility
5:53 PM
Nov 21
67 °FClear.5 mph57%29.98 "Hg10 mi
4:53 PM68 °FPassing clouds.3 mph55%29.96 "Hg10 mi
3:53 PM70 °FScattered clouds.6 mph47%29.95 "Hg10 mi
2:53 PM70 °FPassing clouds.7 mph47%29.94 "Hg10 mi
1:53 PM71 °FPassing clouds.7 mph45%29.93 "Hg10 mi
12:53 PM72 °FPassing clouds.7 mph40%29.93 "Hg10 mi
11:53 AM71 °FPassing clouds.No wind39%29.95 "Hg10 mi
10:53 AM70 °FScattered clouds.5 mph42%29.97 "Hg10 mi
9:53 AM68 °FScattered clouds.3 mph51%29.97 "Hg10 mi
8:53 AM65 °FScattered clouds.No wind63%29.98 "Hg10 mi
7:53 AM64 °FScattered clouds.5 mph68%29.96 "Hg10 mi
6:53 AM61 °FScattered clouds.7 mph75%29.94 "Hg10 mi
5:53 AM60 °FPassing clouds.No wind78%29.94 "Hg10 mi
4:53 AM62 °FClear.No wind73%29.93 "Hg10 mi
3:53 AM63 °FPassing clouds.No wind70%29.93 "Hg10 mi
2:53 AM64 °FOvercast.No wind70%29.94 "Hg10 mi
1:53 AM64 °FOvercast.No wind73%29.94 "Hg10 mi
12:53 AM63 °FPartly cloudy.No wind78%29.96 "Hg10 mi
11:53 PM
Nov 20
64 °FPassing clouds.No wind73%29.97 "Hg10 mi
10:53 PM65 °FPartly cloudy.No wind70%29.98 "Hg7 mi
9:53 PM66 °FLight rain. Mostly cloudy.No wind70%29.98 "Hg7 mi
8:53 PM66 °FMostly cloudy.No wind73%29.99 "Hg10 mi
7:53 PM66 °FPassing clouds.No wind70%30.00 "Hg10 mi
Weather by CustomWeather, © 2014

See weather overviewHow to use our weather pages